"Pseudo-MPEC" for P10OkUb

Created 2019 Jun 15 19:09:13 UT using Find_Orb

Click here for an explanation of pseudo-MPECs

 
 Astrometry: 
     P10OkUb  C2019 05 30T$mW^KAstrometryAy'7Ic!n(_607deN7f44Bredacted;r8i*PnF51
     P10OkUb  C2019 05 30KOuR9=G1,M6qeTw*\hJp,88%*[/ZO4c%+cOIltAGr]`*TmCFLM(5F51
     P10OkUb  C2019 05 30.W#q\bgeP)AT`4N[5aral.5M4/I$fP#i=W.HaO!=P\,QDYlj_TYfF51
     P10OkUb  C2019 05 30huOkTpq*clicks:G*HoERqFI)V-'iSK(-*ouYx@3n7=A,?L.4q:`F51
     P10OkUb |C2019 06 02d!tI\c-Eck:^$m$laoc)U(Ud=$WxBsSpv5YRv%;gsSl@18(Z!16*807
     P10OkUb |C2019 06 02@T!2XyU+RK'B_3N`k[,2lDnEYOSJ*S],l!_=([VoyNC_tXk,$iT+807
     P10OkUb |C2019 06 0253!fLIsc?UA?L#)sS1p9+)^k-NEl=Xn[xt^r]XxlyqVq!OJ3=)Vd807
     P10OkUb |C2019 06 056^/)!BQ6tKulbSDT,oLbfNlk;herelb3uweV-HW)yn#$CJ@PnN6d807
     P10OkUb |C2019 06 05!x*)jOD68WeVUQ3SDE-lH1ir,sAZ/_5.iR?CWt.g)9TEmSjy8eie807
     P10OkUb |C2019 06 05Kb,`rkuZ4nfS0/d^for,A1:f$G0XG#x6hIRN/$?_^SS%a=4%V,ew807
     P10OkUb |C2019 06 05Zv'(/(+-rMVK!@Ot%hN2miO'H_hh]`U\]]EfCR^pc/r)9lb'ttt=807
     P10OkUb |C2019 06 05IU@/CbF)dU@Gle35rL,[5XN$UyOp#+jfNRf2ARhq+#iW/$mABAFw807
     P10OkUb |C2019 06 05EVoZ1`:8A/2M*)2.MjqQ79NX_P/^-6SA!muo`explanationOoYa807

Station data:
(807) Cerro Tololo Observatory, La Serena  (S30.169136 W70.805900)  Chile.
(F51) Pan-STARRS 1, Haleakala  (N20.707235 W156.255910)  US/Hawaii.
   Observers N. Primak, A. Schultz, S. Watters, J. Thiel, T. Goggia. Measurer
   PS1 Science Consortium. 1.8-m Ritchey-Chrétien + CCD.

Orbital elements:  P10OkUb
   Perihelion 2020 Feb 18.160960 +/- 3.48 TT =  3:51:47 (JD 2458897.660960)
Epoch 2019 Jun  5.0 TT = JDT 2458639.5   Earth MOID: 0.7401   AutoNEOCP
M 290.42150224 +/- 1.5              (J2000 ecliptic)
n   0.26951595 +/- 0.00232          Peri.   22.01231 +/- 0.8
a   2.37363021 +/- 0.0136           Node   307.54912 +/- 0.17
e   0.2648687 +/- 0.00505           Incl.   15.00310 +/- 0.017
P   3.66                   H 18.4   G  0.15   U  8.7  
q 1.74492977 +/- 0.0024    Q 3.00233066 +/- 0.0292
From 13 observations 2019 May 30-June 5; mean residual 0".12
Residuals in arcseconds: 
190530 F51  .06+  .03-    190602 807  .23-  .11-    190605 807  .04-  .03-    
190530 F51  .04-  .04+    190602 807  .19-  .17-    190605 807  .02+  .02-    
190530 F51  .04-  .03-    190605 807  .01+  .15+    190605 807  .05-  .07-    
190530 F51  .03+  .04+    190605 807  .03+  .01-    
190602 807  .39+  .22+    190605 807  .06+  .03+    

Ephemerides (geocentric):
Date (UTC) HH   RA              Dec         delta   r     elong  mag " sig PA
---- -- -- --  -------------   -----------  ------ ------ -----  --- ---- ---
2019 06 15 19  13 22 24.067   -32 03 40.46  1.5507 2.2828 124.3 22.2 4.67  71
2019 06 15 20  13 22 24.373   -32 03 18.64  1.5510 2.2826 124.2 22.2 4.70  71
2019 06 15 21  13 22 24.682   -32 02 56.83  1.5512 2.2825 124.2 22.2 4.74  71
2019 06 15 22  13 22 24.996   -32 02 35.03  1.5515 2.2824 124.2 22.2 4.77  71
2019 06 15 23  13 22 25.313   -32 02 13.25  1.5517 2.2822 124.1 22.2 4.80  71
2019 06 16 00  13 22 25.634   -32 01 51.48  1.5519 2.2821 124.1 22.2 4.83  71
2019 06 16 01  13 22 25.958   -32 01 29.73  1.5522 2.2820 124.1 22.2 4.86  71
2019 06 16 02  13 22 26.286   -32 01 07.99  1.5524 2.2819 124.0 22.2 4.90  71
2019 06 16 03  13 22 26.618   -32 00 46.26  1.5527 2.2817 124.0 22.2 4.93  71
2019 06 16 04  13 22 26.954   -32 00 24.55  1.5529 2.2816 124.0 22.2 4.96  71
2019 06 16 05  13 22 27.294   -32 00 02.85  1.5531 2.2815 123.9 22.2 4.99  71
2019 06 16 06  13 22 27.637   -31 59 41.16  1.5534 2.2814 123.9 22.2 5.03  71
2019 06 16 07  13 22 27.984   -31 59 19.49  1.5536 2.2812 123.9 22.2 5.06  71
2019 06 16 08  13 22 28.334   -31 58 57.83  1.5539 2.2811 123.8 22.2 5.09  71
2019 06 16 09  13 22 28.689   -31 58 36.19  1.5541 2.2810 123.8 22.2 5.13  71
2019 06 16 10  13 22 29.047   -31 58 14.56  1.5543 2.2808 123.7 22.2 5.16  71
2019 06 16 11  13 22 29.408   -31 57 52.94  1.5546 2.2807 123.7 22.2 5.19  71
2019 06 16 12  13 22 29.774   -31 57 31.34  1.5548 2.2806 123.7 22.2 5.23  71
2019 06 16 13  13 22 30.143   -31 57 09.75  1.5551 2.2805 123.6 22.2 5.26  72
2019 06 16 14  13 22 30.516   -31 56 48.18  1.5553 2.2803 123.6 22.2 5.29  72
2019 06 16 15  13 22 30.892   -31 56 26.62  1.5556 2.2802 123.6 22.2 5.33  72
2019 06 16 16  13 22 31.273   -31 56 05.07  1.5558 2.2801 123.5 22.2 5.36  72
2019 06 16 17  13 22 31.657   -31 55 43.54  1.5560 2.2800 123.5 22.2 5.40  72
2019 06 16 18  13 22 32.044   -31 55 22.02  1.5563 2.2798 123.5 22.2 5.43  72
2019 06 16 19  13 22 32.436   -31 55 00.51  1.5565 2.2797 123.4 22.2 5.46  72
2019 06 16 20  13 22 32.831   -31 54 39.02  1.5568 2.2796 123.4 22.2 5.50  72
2019 06 16 21  13 22 33.230   -31 54 17.55  1.5570 2.2795 123.4 22.2 5.53  72
2019 06 16 22  13 22 33.632   -31 53 56.09  1.5573 2.2793 123.3 22.2 5.57  72
2019 06 16 23  13 22 34.038   -31 53 34.64  1.5575 2.2792 123.3 22.2 5.60  72
2019 06 17 00  13 22 34.448   -31 53 13.20  1.5578 2.2791 123.3 22.2 5.64  72
2019 06 17 01  13 22 34.862   -31 52 51.78  1.5580 2.2789 123.2 22.2 5.67  72
2019 06 17 02  13 22 35.279   -31 52 30.38  1.5582 2.2788 123.2 22.2 5.71  72
2019 06 17 03  13 22 35.700   -31 52 08.99  1.5585 2.2787 123.1 22.2 5.74  72
2019 06 17 04  13 22 36.125   -31 51 47.61  1.5587 2.2786 123.1 22.2 5.78  72
2019 06 17 05  13 22 36.553   -31 51 26.25  1.5590 2.2784 123.1 22.2 5.81  72
2019 06 17 06  13 22 36.985   -31 51 04.90  1.5592 2.2783 123.0 22.2 5.85  72
2019 06 17 07  13 22 37.421   -31 50 43.57  1.5595 2.2782 123.0 22.2 5.88  72
2019 06 17 08  13 22 37.860   -31 50 22.25  1.5597 2.2781 123.0 22.2 5.92  72
2019 06 17 09  13 22 38.303   -31 50 00.94  1.5600 2.2779 122.9 22.2 5.95  72
2019 06 17 10  13 22 38.750   -31 49 39.65  1.5602 2.2778 122.9 22.2 5.99  72
2019 06 17 11  13 22 39.200   -31 49 18.37  1.5605 2.2777 122.9 22.2 6.03  72
2019 06 17 12  13 22 39.654   -31 48 57.11  1.5607 2.2775 122.8 22.2 6.06  72
2019 06 17 13  13 22 40.112   -31 48 35.86  1.5609 2.2774 122.8 22.2 6.10  72
2019 06 17 14  13 22 40.574   -31 48 14.63  1.5612 2.2773 122.8 22.2 6.13  72
2019 06 17 15  13 22 41.039   -31 47 53.41  1.5614 2.2772 122.7 22.2 6.17  72
2019 06 17 16  13 22 41.508   -31 47 32.21  1.5617 2.2770 122.7 22.2 6.21  72
2019 06 17 17  13 22 41.980   -31 47 11.02  1.5619 2.2769 122.7 22.2 6.24  72
2019 06 17 18  13 22 42.456   -31 46 49.84  1.5622 2.2768 122.6 22.2 6.28  72